Time,TemperatureF,DewpointF,PressureIn,WindDirection,WindDirectionDegrees,WindSpeedMPH,WindSpeedGustMPH,Humidity,HourlyPrecipIn,Conditions,Clouds,dailyrainin,SoftwareType,DateUTC
2013-09-26 00:04:00,65.8,62.8,30.03,WSW,248,0.0,0.0,90,0.00,,---,0.00,VWS V14.01,2013-09-26 05:04:00,
2013-09-26 00:09:00,65.8,62.8,30.03,WSW,248,0.0,0.0,90,0.00,,---,0.00,VWS V14.01,2013-09-26 05:09:00,
2013-09-26 00:14:00,65.8,62.8,30.00,WSW,248,0.0,0.0,90,0.00,,---,0.00,VWS V14.01,2013-09-26 05:14:00,
2013-09-26 00:19:00,65.8,62.8,30.00,WSW,248,0.0,0.0,90,0.00,,---,0.00,VWS V14.01,2013-09-26 05:19:00,
2013-09-26 00:24:00,65.7,62.7,30.00,WSW,248,0.0,0.0,90,0.00,,---,0.00,VWS V14.01,2013-09-26 05:24:00,
2013-09-26 00:29:00,65.7,62.7,30.03,WSW,248,0.0,0.0,90,0.00,,---,0.00,VWS V14.01,2013-09-26 05:29:00,
2013-09-26 00:34:00,65.5,62.5,30.03,WSW,248,0.0,0.0,90,0.00,,---,0.00,VWS V14.01,2013-09-26 05:34:00,
2013-09-26 00:39:00,65.5,62.5,30.03,WSW,248,0.0,0.0,90,0.00,,---,0.00,VWS V14.01,2013-09-26 05:39:00,
2013-09-26 00:44:00,65.5,62.5,30.03,WSW,248,0.0,0.0,90,0.00,,---,0.00,VWS V14.01,2013-09-26 05:44:00,
2013-09-26 00:49:00,65.3,62.3,30.03,WSW,248,0.0,0.0,90,0.00,,---,0.00,VWS V14.01,2013-09-26 05:49:00,
2013-09-26 00:54:00,65.3,62.3,30.03,WSW,248,0.0,0.0,90,0.00,,---,0.00,VWS V14.01,2013-09-26 05:54:00,
2013-09-26 00:59:00,65.1,62.1,30.00,WSW,248,0.0,0.0,90,0.00,,---,0.00,VWS V14.01,2013-09-26 05:59:00,
2013-09-26 01:04:00,65.1,62.1,30.00,WSW,248,0.0,0.0,90,0.00,,---,0.00,VWS V14.01,2013-09-26 06:04:00,
2013-09-26 01:09:00,65.1,62.1,30.00,WSW,248,0.0,0.0,90,0.00,,---,0.00,VWS V14.01,2013-09-26 06:09:00,
2013-09-26 01:14:00,65.1,62.1,30.03,WSW,248,0.0,0.0,90,0.00,,---,0.00,VWS V14.01,2013-09-26 06:14:00,
2013-09-26 01:19:00,64.9,61.9,30.03,WSW,248,0.0,0.0,90,0.00,,---,0.00,VWS V14.01,2013-09-26 06:19:00,
2013-09-26 01:24:00,64.9,61.9,30.03,WSW,248,0.0,0.0,90,0.00,,---,0.00,VWS V14.01,2013-09-26 06:24:00,
2013-09-26 01:29:00,64.8,61.8,30.00,WSW,248,0.0,0.0,90,0.00,,---,0.00,VWS V14.01,2013-09-26 06:29:00,
2013-09-26 01:34:00,64.8,61.8,30.00,WSW,248,0.0,0.0,90,0.00,,---,0.00,VWS V14.01,2013-09-26 06:34:00,
2013-09-26 01:39:00,64.6,61.6,30.00,WSW,248,0.0,0.0,90,0.00,,---,0.00,VWS V14.01,2013-09-26 06:39:00,
2013-09-26 01:44:00,64.6,61.6,30.03,WSW,248,0.0,0.0,90,0.00,,---,0.00,VWS V14.01,2013-09-26 06:44:00,
2013-09-26 01:49:00,64.4,61.4,30.03,WSW,248,0.0,0.0,90,0.00,,---,0.00,VWS V14.01,2013-09-26 06:49:00,
2013-09-26 01:54:00,64.4,61.4,30.03,WSW,248,0.0,0.0,90,0.00,,---,0.00,VWS V14.01,2013-09-26 06:54:00,
2013-09-26 01:59:00,64.2,61.5,30.00,WSW,248,0.0,0.0,91,0.00,,---,0.00,VWS V14.01,2013-09-26 06:59:00,
2013-09-26 02:04:00,64.2,61.5,30.00,WSW,248,0.0,0.0,91,0.00,,---,0.00,VWS V14.01,2013-09-26 07:04:00,
2013-09-26 02:09:00,64.2,61.5,30.00,WSW,248,0.0,0.0,91,0.00,,---,0.00,VWS V14.01,2013-09-26 07:09:00,
2013-09-26 02:14:00,64.2,61.5,30.00,WSW,248,0.0,0.0,91,0.00,,---,0.00,VWS V14.01,2013-09-26 07:14:00,
2013-09-26 02:19:00,64.0,61.4,30.00,WSW,248,0.0,0.0,91,0.00,,---,0.00,VWS V14.01,2013-09-26 07:19:00,
2013-09-26 02:24:00,64.0,61.4,30.00,WSW,248,0.0,0.0,91,0.00,,---,0.00,VWS V14.01,2013-09-26 07:24:00,
2013-09-26 02:29:00,64.0,61.4,30.03,WSW,248,0.0,0.0,91,0.00,,---,0.00,VWS V14.01,2013-09-26 07:29:00,
2013-09-26 02:34:00,64.0,61.4,30.03,WSW,248,0.0,0.0,91,0.00,,---,0.00,VWS V14.01,2013-09-26 07:34:00,
2013-09-26 02:39:00,64.0,61.7,30.03,WSW,248,0.0,0.0,92,0.00,,---,0.00,VWS V14.01,2013-09-26 07:39:00,
2013-09-26 02:44:00,63.9,61.5,30.00,WSW,248,0.0,0.0,92,0.00,,---,0.00,VWS V14.01,2013-09-26 07:44:00,
2013-09-26 02:49:00,63.9,61.5,30.00,WSW,248,0.0,0.0,92,0.00,,---,0.00,VWS V14.01,2013-09-26 07:49:00,
2013-09-26 02:54:00,63.9,61.5,30.00,WSW,248,0.0,0.0,92,0.00,,---,0.00,VWS V14.01,2013-09-26 07:54:00,
2013-09-26 02:59:00,63.9,61.5,30.00,WSW,248,0.0,0.0,92,0.00,,---,0.00,VWS V14.01,2013-09-26 07:59:00,
2013-09-26 03:04:00,63.9,61.5,30.00,WSW,248,0.0,0.0,92,0.00,,---,0.00,VWS V14.01,2013-09-26 08:04:00,
2013-09-26 03:09:00,63.9,61.5,30.00,WSW,248,0.0,0.0,92,0.00,,---,0.00,VWS V14.01,2013-09-26 08:09:00,
2013-09-26 03:14:00,63.5,60.8,30.00,WSW,248,0.0,0.0,91,0.00,,---,0.00,VWS V14.01,2013-09-26 08:14:00,
2013-09-26 03:19:00,63.3,60.7,30.00,WSW,248,0.0,0.0,91,0.00,,---,0.00,VWS V14.01,2013-09-26 08:19:00,
2013-09-26 03:24:00,63.1,60.5,30.00,WSW,248,0.0,0.0,91,0.00,,---,0.00,VWS V14.01,2013-09-26 08:24:00,
2013-09-26 03:29:00,63.1,60.5,30.03,WSW,248,0.0,0.0,91,0.00,,---,0.00,VWS V14.01,2013-09-26 08:29:00,
2013-09-26 03:34:00,63.1,60.5,30.03,WSW,248,0.0,0.0,91,0.00,,---,0.00,VWS V14.01,2013-09-26 08:34:00,
2013-09-26 03:39:00,63.1,60.5,30.03,WSW,248,0.0,0.0,91,0.00,,---,0.00,VWS V14.01,2013-09-26 08:39:00,
2013-09-26 03:44:00,63.0,60.3,30.03,WSW,248,0.0,0.0,91,0.00,,---,0.00,VWS V14.01,2013-09-26 08:44:00,
2013-09-26 03:49:00,63.0,60.3,30.03,WSW,248,0.0,0.0,91,0.00,,---,0.00,VWS V14.01,2013-09-26 08:49:00,
2013-09-26 03:54:00,63.0,60.3,30.03,WSW,248,0.0,0.0,91,0.00,,---,0.00,VWS V14.01,2013-09-26 08:54:00,
2013-09-26 03:59:00,63.0,60.3,30.03,WSW,248,0.0,0.0,91,0.00,,---,0.00,VWS V14.01,2013-09-26 08:59:00,
2013-09-26 04:04:00,63.0,60.3,30.03,WSW,248,0.0,0.0,91,0.00,,---,0.00,VWS V14.01,2013-09-26 09:04:00,
2013-09-26 04:08:00,63.0,60.3,30.03,WSW,248,0.0,0.0,91,0.00,,---,0.00,VWS V14.01,2013-09-26 09:08:00,
2013-09-26 04:13:00,63.0,60.3,30.03,WSW,248,0.0,0.0,91,0.00,,---,0.00,VWS V14.01,2013-09-26 09:13:00,
2013-09-26 04:18:00,62.8,60.1,30.03,WSW,248,0.0,0.0,91,0.00,,---,0.00,VWS V14.01,2013-09-26 09:18:00,
2013-09-26 04:23:00,62.8,60.1,30.03,WSW,248,0.0,0.0,91,0.00,,---,0.00,VWS V14.01,2013-09-26 09:23:00,
2013-09-26 04:28:00,62.6,59.9,30.03,WSW,248,0.0,0.0,91,0.00,,---,0.00,VWS V14.01,2013-09-26 09:28:00,
2013-09-26 04:33:00,62.6,59.9,30.03,WSW,248,0.0,0.0,91,0.00,,---,0.00,VWS V14.01,2013-09-26 09:33:00,
2013-09-26 04:38:00,62.6,60.2,30.03,WSW,248,0.0,0.0,92,0.00,,---,0.00,VWS V14.01,2013-09-26 09:38:00,
2013-09-26 04:43:00,62.6,60.2,30.03,WSW,248,0.0,0.0,92,0.00,,---,0.00,VWS V14.01,2013-09-26 09:43:00,
2013-09-26 04:48:00,62.4,60.1,30.03,WSW,248,0.0,0.0,92,0.00,,---,0.00,VWS V14.01,2013-09-26 09:48:00,
2013-09-26 04:53:00,62.4,60.1,30.03,WSW,248,0.0,0.0,92,0.00,,---,0.00,VWS V14.01,2013-09-26 09:53:00,
2013-09-26 04:58:00,62.4,60.1,30.06,WSW,248,0.0,0.0,92,0.00,,---,0.00,VWS V14.01,2013-09-26 09:58:00,
2013-09-26 05:03:00,62.2,59.9,30.06,WSW,248,0.0,0.0,92,0.00,,---,0.00,VWS V14.01,2013-09-26 10:03:00,
2013-09-26 05:08:00,62.2,59.9,30.06,WSW,248,0.0,0.0,92,0.00,,---,0.00,VWS V14.01,2013-09-26 10:08:00,
2013-09-26 05:13:00,62.2,59.9,30.06,WSW,248,0.0,0.0,92,0.00,,---,0.00,VWS V14.01,2013-09-26 10:13:00,
2013-09-26 05:18:00,62.2,59.9,30.06,WSW,248,0.0,0.0,92,0.00,,---,0.00,VWS V14.01,2013-09-26 10:18:00,
2013-09-26 05:23:00,62.1,59.7,30.06,WSW,248,0.0,0.0,92,0.00,,---,0.00,VWS V14.01,2013-09-26 10:23:00,
2013-09-26 05:28:00,62.1,59.7,30.06,WSW,248,0.0,0.0,92,0.00,,---,0.00,VWS V14.01,2013-09-26 10:28:00,
2013-09-26 05:33:00,62.1,59.7,30.06,WSW,248,0.0,0.0,92,0.00,,---,0.00,VWS V14.01,2013-09-26 10:33:00,
2013-09-26 05:38:00,61.9,59.5,30.06,WSW,248,0.0,0.0,92,0.00,,---,0.00,VWS V14.01,2013-09-26 10:38:00,
2013-09-26 05:43:00,61.9,59.5,30.03,WSW,248,0.0,0.0,92,0.00,,---,0.00,VWS V14.01,2013-09-26 10:43:00,
2013-09-26 05:48:00,61.9,59.5,30.03,WSW,248,0.0,0.0,92,0.00,,---,0.00,VWS V14.01,2013-09-26 10:48:00,
2013-09-26 05:53:00,61.9,59.5,30.03,WSW,248,0.0,0.0,92,0.00,,---,0.00,VWS V14.01,2013-09-26 10:53:00,
2013-09-26 05:58:00,61.9,59.5,30.06,WSW,248,0.0,0.0,92,0.00,,---,0.00,VWS V14.01,2013-09-26 10:58:00,
2013-09-26 06:03:00,61.9,59.5,30.06,WSW,248,0.0,0.0,92,0.00,,---,0.00,VWS V14.01,2013-09-26 11:03:00,
2013-09-26 06:08:00,61.9,59.5,30.06,WSW,248,0.0,0.0,92,0.00,,---,0.00,VWS V14.01,2013-09-26 11:08:00,
2013-09-26 06:13:00,61.9,59.5,30.06,WSW,248,0.0,0.0,92,0.00,,---,0.00,VWS V14.01,2013-09-26 11:13:00,
2013-09-26 06:18:00,61.9,59.5,30.06,WSW,248,0.0,0.0,92,0.00,,---,0.00,VWS V14.01,2013-09-26 11:18:00,
2013-09-26 06:23:00,61.9,59.5,30.06,WSW,248,0.0,0.0,92,0.00,,---,0.00,VWS V14.01,2013-09-26 11:23:00,
2013-09-26 06:28:00,61.9,59.5,30.06,WSW,248,0.0,0.0,92,0.00,,---,0.00,VWS V14.01,2013-09-26 11:28:00,
2013-09-26 06:33:00,61.9,59.5,30.06,WSW,248,0.0,0.0,92,0.00,,---,0.00,VWS V14.01,2013-09-26 11:33:00,
2013-09-26 06:38:00,61.9,59.5,30.06,WSW,248,0.0,0.0,92,0.00,,---,0.00,VWS V14.01,2013-09-26 11:38:00,
2013-09-26 06:43:00,61.9,59.5,30.06,WSW,248,0.0,0.0,92,0.00,,---,0.00,VWS V14.01,2013-09-26 11:43:00,
2013-09-26 06:48:00,61.9,59.5,30.06,WSW,248,0.0,0.0,92,0.00,,---,0.00,VWS V14.01,2013-09-26 11:48:00,
2013-09-26 06:53:00,61.5,59.2,30.06,WSW,248,0.0,0.0,92,0.00,,---,0.00,VWS V14.01,2013-09-26 11:53:00,
2013-09-26 06:58:00,61.7,59.7,30.06,WSW,248,0.0,0.0,93,0.00,,---,0.00,VWS V14.01,2013-09-26 11:58:00,
2013-09-26 07:03:00,61.7,59.7,30.06,WSW,248,0.0,0.0,93,0.00,,---,0.00,VWS V14.01,2013-09-26 12:03:00,
2013-09-26 07:08:00,61.7,59.7,30.06,WSW,248,0.0,0.0,93,0.00,,---,0.00,VWS V14.01,2013-09-26 12:08:00,
2013-09-26 07:13:00,61.7,59.7,30.06,WSW,248,0.0,0.0,93,0.00,,---,0.00,VWS V14.01,2013-09-26 12:13:00,
2013-09-26 07:18:00,61.9,59.8,30.06,WSW,248,0.0,0.0,93,0.00,,---,0.00,VWS V14.01,2013-09-26 12:18:00,
2013-09-26 07:23:00,62.1,60.0,30.06,WSW,248,0.0,0.0,93,0.00,,---,0.00,VWS V14.01,2013-09-26 12:23:00,
2013-09-26 07:28:00,62.1,60.3,30.09,WSW,248,0.0,0.0,94,0.00,,---,0.00,VWS V14.01,2013-09-26 12:28:00,
2013-09-26 07:33:00,62.2,60.5,30.09,WSW,248,0.0,0.0,94,0.00,,---,0.00,VWS V14.01,2013-09-26 12:33:00,
2013-09-26 07:38:00,62.2,60.5,30.09,WSW,248,0.0,0.0,94,0.00,,---,0.00,VWS V14.01,2013-09-26 12:38:00,
2013-09-26 07:43:00,62.2,60.5,30.09,WSW,248,0.0,0.0,94,0.00,,---,0.00,VWS V14.01,2013-09-26 12:43:00,
2013-09-26 07:48:00,62.2,60.5,30.09,WSW,248,0.0,0.0,94,0.00,,---,0.00,VWS V14.01,2013-09-26 12:48:00,
2013-09-26 07:53:00,62.2,60.5,30.09,WSW,248,0.0,0.0,94,0.00,,---,0.00,VWS V14.01,2013-09-26 12:53:00,
2013-09-26 07:58:00,62.2,60.5,30.09,WSW,248,0.0,0.0,94,0.00,,---,0.00,VWS V14.01,2013-09-26 12:58:00,
2013-09-26 08:03:00,62.2,60.5,30.09,WSW,248,0.0,0.0,94,0.00,,---,0.00,VWS V14.01,2013-09-26 13:03:00,
2013-09-26 08:08:00,62.2,60.5,30.09,WSW,248,0.0,0.0,94,0.00,,---,0.00,VWS V14.01,2013-09-26 13:08:00,
2013-09-26 08:13:00,62.2,60.5,30.09,WSW,248,0.0,0.0,94,0.00,,---,0.00,VWS V14.01,2013-09-26 13:13:00,
2013-09-26 08:18:00,62.2,60.5,30.09,WSW,248,0.0,0.0,94,0.00,,---,0.00,VWS V14.01,2013-09-26 13:18:00,
2013-09-26 08:23:00,62.2,60.5,30.09,WSW,248,0.0,0.0,94,0.00,,---,0.00,VWS V14.01,2013-09-26 13:23:00,
2013-09-26 08:28:00,62.2,60.5,30.09,ESE,112,0.0,0.0,94,0.00,,---,0.00,VWS V14.01,2013-09-26 13:28:00,
2013-09-26 08:33:00,62.2,60.5,30.09,West,270,0.0,0.0,94,0.00,,---,0.00,VWS V14.01,2013-09-26 13:33:00,
2013-09-26 08:38:00,62.2,60.5,30.09,West,270,0.0,0.0,94,0.00,,---,0.00,VWS V14.01,2013-09-26 13:38:00,
2013-09-26 08:43:00,62.2,60.5,30.09,West,270,0.0,0.0,94,0.00,,---,0.00,VWS V14.01,2013-09-26 13:43:00,
2013-09-26 08:48:00,62.2,60.5,30.09,West,270,0.0,0.0,94,0.00,,---,0.00,VWS V14.01,2013-09-26 13:48:00,
2013-09-26 08:53:00,62.2,60.5,30.09,West,270,0.0,0.0,94,0.00,,---,0.00,VWS V14.01,2013-09-26 13:53:00,
2013-09-26 08:58:00,62.2,60.5,30.09,WSW,248,0.0,0.0,94,0.00,,---,0.00,VWS V14.01,2013-09-26 13:58:00,
2013-09-26 09:03:00,62.2,60.5,30.09,WSW,248,0.0,0.0,94,0.00,,---,0.00,VWS V14.01,2013-09-26 14:03:00,
2013-09-26 09:08:00,62.2,60.5,30.09,WSW,248,0.0,0.0,94,0.00,,---,0.00,VWS V14.01,2013-09-26 14:08:00,
2013-09-26 09:13:00,62.2,60.5,30.12,WSW,248,0.0,0.0,94,0.00,,---,0.00,VWS V14.01,2013-09-26 14:13:00,
2013-09-26 09:18:00,72.3,65.8,30.12,West,270,0.0,0.0,80,0.00,,---,0.00,VWS V14.01,2013-09-26 14:18:00,
2013-09-26 09:23:00,72.3,65.8,30.12,WSW,248,0.0,0.0,80,0.00,,---,0.00,VWS V14.01,2013-09-26 14:23:00,
2013-09-26 09:28:00,72.3,65.8,30.12,WNW,292,0.0,0.0,80,0.00,,---,0.00,VWS V14.01,2013-09-26 14:28:00,
2013-09-26 09:33:00,72.3,65.8,30.12,WSW,248,0.0,0.0,80,0.00,,---,0.00,VWS V14.01,2013-09-26 14:33:00,
2013-09-26 09:38:00,72.3,65.8,30.12,WSW,248,3.1,3.4,80,0.00,,---,0.00,VWS V14.01,2013-09-26 14:38:00,
2013-09-26 09:43:00,72.3,65.8,30.12,West,270,1.3,1.3,80,0.00,,---,0.00,VWS V14.01,2013-09-26 14:43:00,
2013-09-26 09:48:00,72.3,65.8,30.12,WSW,248,0.0,0.0,80,0.00,,---,0.00,VWS V14.01,2013-09-26 14:48:00,
2013-09-26 09:53:00,72.3,65.8,30.12,SW,225,0.0,1.1,80,0.00,,---,0.00,VWS V14.01,2013-09-26 14:53:00,
2013-09-26 09:58:00,73.6,65.2,30.12,SW,225,0.0,2.2,75,0.00,,---,0.00,VWS V14.01,2013-09-26 14:58:00,
2013-09-26 10:03:00,73.8,65.3,30.12,West,270,0.0,2.0,75,0.00,,---,0.00,VWS V14.01,2013-09-26 15:03:00,
2013-09-26 10:08:00,73.8,65.3,30.12,West,270,0.0,0.0,75,0.00,,---,0.00,VWS V14.01,2013-09-26 15:08:00,
2013-09-26 10:13:00,73.8,65.3,30.12,WSW,248,0.0,0.0,75,0.00,,---,0.00,VWS V14.01,2013-09-26 15:13:00,
2013-09-26 10:18:00,74.1,66.1,30.12,WSW,248,0.0,0.0,76,0.00,,---,0.00,VWS V14.01,2013-09-26 15:18:00,
2013-09-26 10:23:00,74.3,65.9,30.12,WSW,248,0.0,0.0,75,0.00,,---,0.00,VWS V14.01,2013-09-26 15:23:00,
2013-09-26 10:28:00,74.5,65.7,30.12,WNW,292,0.0,0.0,74,0.00,,---,0.00,VWS V14.01,2013-09-26 15:28:00,
2013-09-26 10:33:00,74.5,65.7,30.12,WSW,248,0.0,0.0,74,0.00,,---,0.00,VWS V14.01,2013-09-26 15:33:00,
2013-09-26 10:38:00,74.7,65.4,30.12,West,270,0.0,1.3,73,0.00,,---,0.00,VWS V14.01,2013-09-26 15:38:00,
2013-09-26 10:43:00,75.2,66.3,30.12,West,270,2.2,2.2,74,0.00,,---,0.00,VWS V14.01,2013-09-26 15:43:00,
2013-09-26 10:48:00,75.4,66.5,30.12,SE,135,1.1,2.0,74,0.00,,---,0.00,VWS V14.01,2013-09-26 15:48:00,
2013-09-26 10:53:00,75.4,66.5,30.12,ESE,112,1.1,2.7,74,0.00,,---,0.00,VWS V14.01,2013-09-26 15:53:00,
2013-09-26 10:58:00,75.7,66.5,30.12,WSW,248,1.3,3.6,73,0.00,,---,0.00,VWS V14.01,2013-09-26 15:58:00,
2013-09-26 11:03:00,75.9,65.8,30.12,WNW,292,0.9,3.1,71,0.00,,---,0.00,VWS V14.01,2013-09-26 16:03:00,
2013-09-26 11:08:00,75.9,65.0,30.12,ENE,68,0.0,0.0,69,0.00,,---,0.00,VWS V14.01,2013-09-26 16:08:00,
2013-09-26 11:13:00,76.5,66.0,30.12,West,270,0.0,2.5,70,0.00,,---,0.00,VWS V14.01,2013-09-26 16:13:00,
2013-09-26 11:18:00,76.6,66.1,30.12,WSW,248,0.0,0.0,70,0.00,,---,0.00,VWS V14.01,2013-09-26 16:18:00,
2013-09-26 11:23:00,76.3,64.5,30.12,WSW,248,1.6,3.1,67,0.00,,---,0.00,VWS V14.01,2013-09-26 16:23:00,
2013-09-26 11:28:00,76.3,65.4,30.12,West,270,0.0,0.0,69,0.00,,---,0.00,VWS V14.01,2013-09-26 16:28:00,
2013-09-26 11:33:00,76.6,65.3,30.12,NW,315,1.1,1.6,68,0.00,,---,0.00,VWS V14.01,2013-09-26 16:33:00,
2013-09-26 11:38:00,77.4,66.0,30.12,SW,225,1.1,1.6,68,0.00,,---,0.00,VWS V14.01,2013-09-26 16:38:00,
2013-09-26 11:43:00,78.1,65.8,30.12,WSW,248,0.0,0.0,66,0.00,,---,0.00,VWS V14.01,2013-09-26 16:43:00,
2013-09-26 11:48:00,77.9,65.6,30.12,NW,315,0.9,2.5,66,0.00,,---,0.00,VWS V14.01,2013-09-26 16:48:00,
2013-09-26 11:53:00,77.5,65.3,30.12,WSW,248,0.0,0.0,66,0.00,,---,0.00,VWS V14.01,2013-09-26 16:53:00,
2013-09-26 11:58:00,77.9,64.8,30.12,WSW,248,0.0,2.2,64,0.00,,---,0.00,VWS V14.01,2013-09-26 16:58:00,
2013-09-26 12:03:00,78.4,65.7,30.12,WSW,248,1.6,1.6,65,0.00,,---,0.00,VWS V14.01,2013-09-26 17:03:00,
2013-09-26 12:08:00,77.9,64.8,30.12,East,90,2.0,2.5,64,0.00,,---,0.00,VWS V14.01,2013-09-26 17:08:00,
2013-09-26 12:13:00,77.9,64.3,30.12,SSW,202,0.0,1.6,63,0.00,,---,0.00,VWS V14.01,2013-09-26 17:13:00,
2013-09-26 12:18:00,77.2,63.2,30.12,SW,225,0.0,0.9,62,0.00,,---,0.00,VWS V14.01,2013-09-26 17:18:00,
2013-09-26 12:23:00,76.8,63.3,30.12,WSW,248,0.0,0.0,63,0.00,,---,0.00,VWS V14.01,2013-09-26 17:23:00,
2013-09-26 12:28:00,77.4,64.2,30.15,East,90,2.0,2.5,64,0.00,,---,0.00,VWS V14.01,2013-09-26 17:28:00,
2013-09-26 12:33:00,78.1,63.1,30.15,SSW,202,2.7,2.9,60,0.00,,---,0.00,VWS V14.01,2013-09-26 17:33:00,
2013-09-26 12:38:00,78.6,62.6,30.15,WSW,248,1.6,1.6,58,0.00,,---,0.00,VWS V14.01,2013-09-26 17:38:00,
2013-09-26 12:43:00,79.0,63.9,30.15,WSW,248,4.0,4.0,60,0.00,,---,0.00,VWS V14.01,2013-09-26 17:43:00,
2013-09-26 12:48:00,79.0,63.0,30.15,SW,225,0.0,0.0,58,0.00,,---,0.00,VWS V14.01,2013-09-26 17:48:00,
2013-09-26 12:53:00,78.8,62.8,30.15,WSW,248,0.0,0.0,58,0.00,,---,0.00,VWS V14.01,2013-09-26 17:53:00,
2013-09-26 12:58:00,78.4,62.5,30.15,WSW,248,0.0,0.0,58,0.00,,---,0.00,VWS V14.01,2013-09-26 17:58:00,
2013-09-26 13:03:00,79.2,62.1,30.15,WSW,248,2.5,2.5,56,0.00,,---,0.00,VWS V14.01,2013-09-26 18:03:00,
2013-09-26 13:08:00,79.0,62.5,30.15,West,270,0.0,2.7,57,0.00,,---,0.00,VWS V14.01,2013-09-26 18:08:00,
2013-09-26 13:13:00,79.9,63.8,30.15,WSW,248,3.6,4.9,58,0.00,,---,0.00,VWS V14.01,2013-09-26 18:13:00,
2013-09-26 13:18:00,80.6,63.0,30.15,WSW,248,2.2,2.9,55,0.00,,---,0.00,VWS V14.01,2013-09-26 18:18:00,
2013-09-26 13:23:00,80.8,63.1,30.15,SSE,158,1.1,1.1,55,0.00,,---,0.00,VWS V14.01,2013-09-26 18:23:00,
2013-09-26 13:28:00,81.0,62.2,30.12,WSW,248,3.1,3.4,53,0.00,,---,0.00,VWS V14.01,2013-09-26 18:28:00,
2013-09-26 13:33:00,81.3,63.1,30.12,ENE,68,1.6,1.6,54,0.00,,---,0.00,VWS V14.01,2013-09-26 18:33:00,
2013-09-26 13:38:00,81.3,62.0,30.12,West,270,0.0,1.1,52,0.00,,---,0.00,VWS V14.01,2013-09-26 18:38:00,
2013-09-26 13:43:00,81.3,62.0,30.12,WSW,248,2.5,2.5,52,0.00,,---,0.00,VWS V14.01,2013-09-26 18:43:00,
2013-09-26 13:48:00,81.3,60.3,30.12,West,270,1.6,1.6,49,0.00,,---,0.00,VWS V14.01,2013-09-26 18:48:00,
2013-09-26 13:53:00,81.3,60.3,30.12,SSW,202,2.0,2.0,49,0.00,,---,0.00,VWS V14.01,2013-09-26 18:53:00,
2013-09-26 13:58:00,81.7,60.1,30.12,SSW,202,2.5,2.9,48,0.00,,---,0.00,VWS V14.01,2013-09-26 18:58:00,
2013-09-26 14:03:00,81.9,60.8,30.12,WNW,292,1.6,1.6,49,0.00,,---,0.00,VWS V14.01,2013-09-26 19:03:00,
2013-09-26 14:08:00,81.9,60.3,30.12,SW,225,2.5,2.5,48,0.00,,---,0.00,VWS V14.01,2013-09-26 19:08:00,
2013-09-26 14:13:00,80.6,59.7,30.12,WSW,248,0.0,0.0,49,0.00,,---,0.00,VWS V14.01,2013-09-26 19:13:00,
2013-09-26 14:18:00,81.1,60.8,30.12,West,270,0.0,0.0,50,0.00,,---,0.00,VWS V14.01,2013-09-26 19:18:00,
2013-09-26 14:23:00,80.6,59.1,30.12,WSW,248,0.0,0.0,48,0.00,,---,0.00,VWS V14.01,2013-09-26 19:23:00,
2013-09-26 14:28:00,81.1,60.2,30.12,West,270,0.0,0.0,49,0.00,,---,0.00,VWS V14.01,2013-09-26 19:28:00,
2013-09-26 14:33:00,81.7,58.3,30.12,WSW,248,2.9,2.9,45,0.00,,---,0.00,VWS V14.01,2013-09-26 19:33:00,
2013-09-26 14:38:00,81.5,59.3,30.12,SW,225,2.9,2.9,47,0.00,,---,0.00,VWS V14.01,2013-09-26 19:38:00,
2013-09-26 14:43:00,81.5,59.3,30.15,SSW,202,1.1,2.0,47,0.00,,---,0.00,VWS V14.01,2013-09-26 19:43:00,
2013-09-26 14:48:00,81.9,60.8,30.15,NW,315,0.0,0.0,49,0.00,,---,0.00,VWS V14.01,2013-09-26 19:48:00,
2013-09-26 14:53:00,81.9,60.3,30.15,ENE,68,2.7,2.7,48,0.00,,---,0.00,VWS V14.01,2013-09-26 19:53:00,
2013-09-26 14:58:00,81.9,60.3,30.12,West,270,0.0,1.1,48,0.00,,---,0.00,VWS V14.01,2013-09-26 19:58:00,
2013-09-26 15:03:00,81.9,60.3,30.12,WSW,248,0.0,0.0,48,0.00,,---,0.00,VWS V14.01,2013-09-26 20:03:00,
2013-09-26 15:08:00,81.9,60.3,30.12,SSW,202,2.7,2.7,48,0.00,,---,0.00,VWS V14.01,2013-09-26 20:08:00,
2013-09-26 15:13:00,81.9,60.3,30.15,WSW,248,2.5,3.6,48,0.00,,---,0.00,VWS V14.01,2013-09-26 20:13:00,
2013-09-26 15:18:00,81.9,60.3,30.15,WSW,248,2.0,2.0,48,0.00,,---,0.00,VWS V14.01,2013-09-26 20:18:00,
2013-09-26 15:23:00,81.9,60.3,30.15,WNW,292,2.0,3.4,48,0.00,,---,0.00,VWS V14.01,2013-09-26 20:23:00,
2013-09-26 15:28:00,81.9,60.3,30.15,South,180,1.6,2.5,48,0.00,,---,0.00,VWS V14.01,2013-09-26 20:28:00,
2013-09-26 15:33:00,81.9,60.3,30.15,WSW,248,1.1,1.1,48,0.00,,---,0.00,VWS V14.01,2013-09-26 20:33:00,
2013-09-26 15:38:00,81.9,60.3,30.15,West,270,1.6,1.6,48,0.00,,---,0.00,VWS V14.01,2013-09-26 20:38:00,
2013-09-26 15:43:00,81.9,60.3,30.15,WSW,248,2.0,2.0,48,0.00,,---,0.00,VWS V14.01,2013-09-26 20:43:00,
2013-09-26 15:48:00,81.9,60.3,30.15,WSW,248,0.0,1.1,48,0.00,,---,0.00,VWS V14.01,2013-09-26 20:48:00,
2013-09-26 15:53:00,81.9,60.3,30.15,ENE,68,3.4,3.4,48,0.00,,---,0.00,VWS V14.01,2013-09-26 20:53:00,
2013-09-26 15:58:00,81.9,60.3,30.15,SW,225,0.0,0.0,48,0.00,,---,0.00,VWS V14.01,2013-09-26 20:58:00,
2013-09-26 16:03:00,81.9,60.3,30.15,WSW,248,0.0,0.9,48,0.00,,---,0.00,VWS V14.01,2013-09-26 21:03:00,
2013-09-26 16:08:00,81.9,60.3,30.15,West,270,0.0,2.0,48,0.00,,---,0.00,VWS V14.01,2013-09-26 21:08:00,
2013-09-26 16:13:00,81.9,60.3,30.15,West,270,0.9,0.9,48,0.00,,---,0.00,VWS V14.01,2013-09-26 21:13:00,
2013-09-26 16:18:00,81.9,60.3,30.15,West,270,0.0,1.6,48,0.00,,---,0.00,VWS V14.01,2013-09-26 21:18:00,
2013-09-26 16:23:00,81.9,60.3,30.15,West,270,0.0,2.2,48,0.00,,---,0.00,VWS V14.01,2013-09-26 21:23:00,
2013-09-26 16:28:00,81.9,60.3,30.15,WSW,248,0.0,1.6,48,0.00,,---,0.00,VWS V14.01,2013-09-26 21:28:00,
2013-09-26 16:33:00,81.9,60.3,30.15,ESE,112,2.7,2.7,48,0.00,,---,0.00,VWS V14.01,2013-09-26 21:33:00,
2013-09-26 16:38:00,81.9,60.3,30.15,WSW,248,0.0,0.0,48,0.00,,---,0.00,VWS V14.01,2013-09-26 21:38:00,
2013-09-26 16:43:00,81.9,60.3,30.15,WSW,248,0.0,0.0,48,0.00,,---,0.00,VWS V14.01,2013-09-26 21:43:00,
2013-09-26 16:48:00,81.9,60.3,30.15,West,270,0.9,0.9,48,0.00,,---,0.00,VWS V14.01,2013-09-26 21:48:00,
2013-09-26 16:53:00,81.9,60.3,30.15,WSW,248,0.0,0.0,48,0.00,,---,0.00,VWS V14.01,2013-09-26 21:53:00,
2013-09-26 16:58:00,81.9,60.3,30.15,WSW,248,1.1,1.6,48,0.00,,---,0.00,VWS V14.01,2013-09-26 21:58:00,
2013-09-26 17:03:00,81.9,60.3,30.15,WSW,248,1.3,1.6,48,0.00,,---,0.00,VWS V14.01,2013-09-26 22:03:00,
2013-09-26 17:08:00,81.9,60.3,30.15,ESE,112,1.3,2.0,48,0.00,,---,0.00,VWS V14.01,2013-09-26 22:08:00,
2013-09-26 17:13:00,81.9,60.3,30.15,WSW,248,0.0,0.0,48,0.00,,---,0.00,VWS V14.01,2013-09-26 22:13:00,
2013-09-26 17:18:00,81.9,60.3,30.15,WSW,248,0.0,0.0,48,0.00,,---,0.00,VWS V14.01,2013-09-26 22:18:00,
2013-09-26 17:23:00,81.9,60.3,30.15,WSW,248,0.0,0.0,48,0.00,,---,0.00,VWS V14.01,2013-09-26 22:23:00,
2013-09-26 17:28:00,81.9,60.3,30.15,WSW,248,0.0,0.0,48,0.00,,---,0.00,VWS V14.01,2013-09-26 22:28:00,
2013-09-26 17:33:00,81.9,60.3,30.15,WSW,248,0.0,0.0,48,0.00,,---,0.00,VWS V14.01,2013-09-26 22:33:00,
2013-09-26 17:38:00,81.9,60.3,30.15,WSW,248,0.0,0.0,48,0.00,,---,0.00,VWS V14.01,2013-09-26 22:38:00,
2013-09-26 17:43:00,78.6,58.4,30.15,WSW,248,0.0,0.0,50,0.00,,---,0.00,VWS V14.01,2013-09-26 22:43:00,
2013-09-26 17:48:00,78.3,58.7,30.15,WSW,248,0.0,0.0,51,0.00,,---,0.00,VWS V14.01,2013-09-26 22:48:00,
2013-09-26 17:53:00,77.9,58.9,30.15,WSW,248,0.0,0.0,52,0.00,,---,0.00,VWS V14.01,2013-09-26 22:53:00,
2013-09-26 17:58:00,77.7,59.2,30.15,WSW,248,0.0,0.0,53,0.00,,---,0.00,VWS V14.01,2013-09-26 22:58:00,
2013-09-26 18:03:00,77.2,59.8,30.15,WSW,248,0.0,0.0,55,0.00,,---,0.00,VWS V14.01,2013-09-26 23:03:00,
2013-09-26 18:08:00,76.8,60.0,30.15,WSW,248,0.0,0.0,56,0.00,,---,0.00,VWS V14.01,2013-09-26 23:08:00,
2013-09-26 18:13:00,76.3,60.0,30.15,WSW,248,0.0,0.0,57,0.00,,---,0.00,VWS V14.01,2013-09-26 23:13:00,
2013-09-26 18:17:00,75.9,60.1,30.15,WSW,248,0.0,0.0,58,0.00,,---,0.00,VWS V14.01,2013-09-26 23:17:00,
2013-09-26 18:22:00,75.4,60.1,30.15,WSW,248,0.0,0.0,59,0.00,,---,0.00,VWS V14.01,2013-09-26 23:22:00,
2013-09-26 18:27:00,75.2,60.4,30.15,WSW,248,0.0,0.0,60,0.00,,---,0.00,VWS V14.01,2013-09-26 23:27:00,
2013-09-26 18:32:00,74.8,60.5,30.15,WSW,248,0.0,0.0,61,0.00,,---,0.00,VWS V14.01,2013-09-26 23:32:00,
2013-09-26 18:37:00,74.5,60.6,30.15,WSW,248,0.0,0.0,62,0.00,,---,0.00,VWS V14.01,2013-09-26 23:37:00,
2013-09-26 18:42:00,74.3,60.5,30.15,WSW,248,0.0,0.0,62,0.00,,---,0.00,VWS V14.01,2013-09-26 23:42:00,
2013-09-26 18:47:00,73.8,60.4,30.15,WSW,248,0.0,0.0,63,0.00,,---,0.00,VWS V14.01,2013-09-26 23:47:00,
2013-09-26 18:53:00,73.4,60.5,30.15,WSW,248,0.0,0.0,64,0.00,,---,0.00,VWS V14.01,2013-09-26 23:53:00,
2013-09-26 18:58:00,73.0,60.2,30.15,WSW,248,0.0,0.0,64,0.00,,---,0.00,VWS V14.01,2013-09-26 23:58:00,
2013-09-26 19:03:00,73.0,60.2,30.15,WSW,248,0.0,0.0,64,0.00,,---,0.00,VWS V14.01,2013-09-27 00:03:00,
2013-09-26 19:10:00,72.3,60.3,30.15,WSW,248,0.0,0.0,66,0.00,,---,0.00,VWS V14.01,2013-09-27 00:10:00,
2013-09-26 19:15:00,72.0,60.0,30.15,WSW,248,0.0,0.0,66,0.00,,---,0.00,VWS V14.01,2013-09-27 00:15:00,
2013-09-26 19:20:00,71.8,60.2,30.15,WSW,248,0.0,0.0,67,0.00,,---,0.00,VWS V14.01,2013-09-27 00:20:00,
2013-09-26 19:25:00,71.4,60.3,30.15,WSW,248,0.0,0.0,68,0.00,,---,0.00,VWS V14.01,2013-09-27 00:25:00,
2013-09-26 19:30:00,71.2,60.2,30.15,WSW,248,0.0,0.0,68,0.00,,---,0.00,VWS V14.01,2013-09-27 00:30:00,
2013-09-26 19:35:00,71.1,60.4,30.15,WSW,248,0.0,0.0,69,0.00,,---,0.00,VWS V14.01,2013-09-27 00:35:00,
2013-09-26 19:40:00,70.7,60.5,30.15,WSW,248,0.0,0.0,70,0.00,,---,0.00,VWS V14.01,2013-09-27 00:40:00,
2013-09-26 19:45:00,70.5,60.7,30.15,WSW,248,0.0,0.0,71,0.00,,---,0.00,VWS V14.01,2013-09-27 00:45:00,
2013-09-26 19:50:00,70.3,60.5,30.15,WSW,248,0.0,0.0,71,0.00,,---,0.00,VWS V14.01,2013-09-27 00:50:00,
2013-09-26 19:55:00,70.0,60.5,30.15,WSW,248,0.0,0.0,72,0.00,,---,0.00,VWS V14.01,2013-09-27 00:55:00,
2013-09-26 20:00:00,69.8,60.4,30.15,WSW,248,0.0,0.0,72,0.00,,---,0.00,VWS V14.01,2013-09-27 01:00:00,
2013-09-26 20:05:00,69.8,60.8,30.15,WSW,248,0.0,0.0,73,0.00,,---,0.00,VWS V14.01,2013-09-27 01:05:00,
2013-09-26 20:10:00,69.6,61.0,30.15,WSW,248,0.0,0.0,74,0.00,,---,0.00,VWS V14.01,2013-09-27 01:10:00,
2013-09-26 20:15:00,69.4,61.2,30.15,WSW,248,0.0,0.0,75,0.00,,---,0.00,VWS V14.01,2013-09-27 01:15:00,
2013-09-26 20:20:00,69.3,61.0,30.15,WSW,248,0.0,0.0,75,0.00,,---,0.00,VWS V14.01,2013-09-27 01:20:00,
2013-09-26 20:25:00,69.1,61.2,30.15,WSW,248,0.0,0.0,76,0.00,,---,0.00,VWS V14.01,2013-09-27 01:25:00,
2013-09-26 20:30:00,68.9,61.0,30.15,WSW,248,0.0,0.0,76,0.00,,---,0.00,VWS V14.01,2013-09-27 01:30:00,
2013-09-26 20:35:00,68.7,61.2,30.15,WSW,248,0.0,0.0,77,0.00,,---,0.00,VWS V14.01,2013-09-27 01:35:00,
2013-09-26 20:40:00,68.7,61.2,30.15,WSW,248,0.0,0.0,77,0.00,,---,0.00,VWS V14.01,2013-09-27 01:40:00,
2013-09-26 20:45:00,68.7,61.2,30.15,WSW,248,0.0,0.0,77,0.00,,---,0.00,VWS V14.01,2013-09-27 01:45:00,
2013-09-26 20:50:00,68.7,61.2,30.15,WSW,248,0.0,0.0,77,0.00,,---,0.00,VWS V14.01,2013-09-27 01:50:00,
2013-09-26 20:55:00,68.7,61.2,30.15,WSW,248,0.0,0.0,77,0.00,,---,0.00,VWS V14.01,2013-09-27 01:55:00,
2013-09-26 20:59:00,68.7,61.2,30.15,WSW,248,0.0,0.0,77,0.00,,---,0.00,VWS V14.01,2013-09-27 01:59:00,
2013-09-26 21:04:00,68.7,61.2,30.15,WSW,248,0.0,0.0,77,0.00,,---,0.00,VWS V14.01,2013-09-27 02:04:00,
2013-09-26 21:09:00,68.7,61.2,30.15,WSW,248,0.0,0.0,77,0.00,,---,0.00,VWS V14.01,2013-09-27 02:09:00,
2013-09-26 21:14:00,68.7,61.2,30.15,WSW,248,0.0,0.0,77,0.00,,---,0.00,VWS V14.01,2013-09-27 02:14:00,
2013-09-26 21:19:00,68.7,61.2,30.15,WSW,248,0.0,0.0,77,0.00,,---,0.00,VWS V14.01,2013-09-27 02:19:00,
2013-09-26 21:24:00,68.7,61.2,30.15,WSW,248,0.0,0.0,77,0.00,,---,0.00,VWS V14.01,2013-09-27 02:24:00,
2013-09-26 21:29:00,68.7,61.2,30.15,WSW,248,0.0,0.0,77,0.00,,---,0.00,VWS V14.01,2013-09-27 02:29:00,
2013-09-26 21:34:00,68.7,61.2,30.15,WSW,248,0.0,0.0,77,0.00,,---,0.00,VWS V14.01,2013-09-27 02:34:00,
2013-09-26 21:39:00,68.7,61.2,30.15,WSW,248,0.0,0.0,77,0.00,,---,0.00,VWS V14.01,2013-09-27 02:39:00,
2013-09-26 21:44:00,68.7,61.2,30.15,WSW,248,0.0,0.0,77,0.00,,---,0.00,VWS V14.01,2013-09-27 02:44:00,
2013-09-26 21:49:00,68.7,61.2,30.15,WSW,248,0.0,0.0,77,0.00,,---,0.00,VWS V14.01,2013-09-27 02:49:00,
2013-09-26 21:54:00,68.7,61.2,30.15,WSW,248,0.0,0.0,77,0.00,,---,0.00,VWS V14.01,2013-09-27 02:54:00,
2013-09-26 21:59:00,68.7,61.2,30.15,WSW,248,0.0,0.0,77,0.00,,---,0.00,VWS V14.01,2013-09-27 02:59:00,
2013-09-26 22:04:00,68.7,61.2,30.15,WSW,248,0.0,0.0,77,0.00,,---,0.00,VWS V14.01,2013-09-27 03:04:00,
2013-09-26 22:09:00,68.7,61.2,30.15,WSW,248,0.0,0.0,77,0.00,,---,0.00,VWS V14.01,2013-09-27 03:09:00,
2013-09-26 22:14:00,68.7,61.2,30.15,WSW,248,0.0,0.0,77,0.00,,---,0.00,VWS V14.01,2013-09-27 03:14:00,
2013-09-26 22:19:00,68.7,61.2,30.15,WSW,248,0.0,0.0,77,0.00,,---,0.00,VWS V14.01,2013-09-27 03:19:00,
2013-09-26 22:24:00,68.7,61.2,30.15,WSW,248,0.0,0.0,77,0.00,,---,0.00,VWS V14.01,2013-09-27 03:24:00,
2013-09-26 22:29:00,68.7,61.2,30.15,WSW,248,0.0,0.0,77,0.00,,---,0.00,VWS V14.01,2013-09-27 03:29:00,
2013-09-26 22:34:00,68.7,61.2,30.15,WSW,248,0.0,0.0,77,0.00,,---,0.00,VWS V14.01,2013-09-27 03:34:00,
2013-09-26 22:39:00,68.7,61.2,30.15,WSW,248,0.0,0.0,77,0.00,,---,0.00,VWS V14.01,2013-09-27 03:39:00,
2013-09-26 22:44:00,68.7,61.2,30.15,WSW,248,0.0,0.0,77,0.00,,---,0.00,VWS V14.01,2013-09-27 03:44:00,
2013-09-26 22:49:00,68.7,61.2,30.15,WSW,248,0.0,0.0,77,0.00,,---,0.00,VWS V14.01,2013-09-27 03:49:00,
2013-09-26 22:54:00,68.7,61.2,30.15,WSW,248,0.0,0.0,77,0.00,,---,0.00,VWS V14.01,2013-09-27 03:54:00,
2013-09-26 22:59:00,68.7,61.2,30.15,WSW,248,0.0,0.0,77,0.00,,---,0.00,VWS V14.01,2013-09-27 03:59:00,
2013-09-26 23:01:00,68.7,61.2,30.15,WSW,248,0.0,0.0,77,0.00,,---,0.00,VWS V14.01,2013-09-27 04:01:00,
2013-09-26 23:02:00,68.7,61.2,30.15,WSW,248,0.0,0.0,77,0.00,,---,0.00,VWS V14.01,2013-09-27 04:02:00,
2013-09-26 23:07:00,68.7,61.2,30.15,WSW,248,0.0,0.0,77,0.00,,---,0.00,VWS V14.01,2013-09-27 04:07:00,
2013-09-26 23:12:00,68.7,61.2,30.15,WSW,248,0.0,0.0,77,0.00,,---,0.00,VWS V14.01,2013-09-27 04:12:00,
2013-09-26 23:17:00,68.7,61.2,30.15,WSW,248,0.0,0.0,77,0.00,,---,0.00,VWS V14.01,2013-09-27 04:17:00,
2013-09-26 23:22:00,68.7,61.2,30.15,WSW,248,0.0,0.0,77,0.00,,---,0.00,VWS V14.01,2013-09-27 04:22:00,
2013-09-26 23:27:00,68.7,61.2,30.15,WSW,248,0.0,0.0,77,0.00,,---,0.00,VWS V14.01,2013-09-27 04:27:00,
2013-09-26 23:32:00,68.7,61.2,30.15,WSW,248,0.0,0.0,77,0.00,,---,0.00,VWS V14.01,2013-09-27 04:32:00,
2013-09-26 23:37:00,68.7,61.2,30.15,WSW,248,0.0,0.0,77,0.00,,---,0.00,VWS V14.01,2013-09-27 04:37:00,
2013-09-26 23:42:00,68.7,61.2,30.15,WSW,248,0.0,0.0,77,0.00,,---,0.00,VWS V14.01,2013-09-27 04:42:00,
2013-09-26 23:47:00,68.7,61.2,30.15,WSW,248,0.0,0.0,77,0.00,,---,0.00,VWS V14.01,2013-09-27 04:47:00,
2013-09-26 23:52:00,68.7,61.2,30.15,WSW,248,0.0,0.0,77,0.00,,---,0.00,VWS V14.01,2013-09-27 04:52:00,
2013-09-26 23:57:00,68.7,61.2,30.15,WSW,248,0.0,0.0,77,0.00,,---,0.00,VWS V14.01,2013-09-27 04:57:00,